{"data":{"norad_id":55047,"intl_designator":"2023-001AQ","name":"NUSAT-33 (ALBANIA-2)","alt_names":[],"object_type":"PAYLOAD","status":"ACTIVE","operator":null,"country":"ARGN","launch_date":"2023-01-03","launch_site_code":"AFETR","launch_vehicle":null,"mission":null,"orbit_class":"UNKNOWN","rcs_meters":null,"size_class":null,"mass_kg":null,"dimensions":null,"purposes":[],"wikipedia_slug":null,"has_3d_model":false,"image_url":null,"decayed_at":null,"tle_current":{"epoch":"2026-05-25T03:39:12.877632Z","epoch_age_seconds":55774,"freshness":"FRESH","line1":"1 55047U 23001AQ  26145.15223238  .00008620  00000+0  32448-3 0  9990","line2":"2 55047  97.3085 206.5214 0008285 123.0421 237.1615 15.27320837188797","mean_motion":15.27320837,"eccentricity":0.0008285,"inclination_deg":97.3085,"raan_deg":206.5214,"arg_perigee_deg":123.0421,"mean_anomaly_deg":237.1615,"bstar":0.00032448,"rev_number":18879,"period_min":94.282744339983,"perigee_km":478.14009731623,"apogee_km":489.51036873635,"semimajor_km":6861.9622330263,"source":"CELESTRAK","updated_at":"2026-05-25T13:37:58.811484Z"}}}